Time,TemperatureF,DewpointF,PressureIn,WindDirection,WindDirectionDegrees,WindSpeedMPH,WindSpeedGustMPH,Humidity,HourlyPrecipIn,Conditions,Clouds,dailyrainin,SoftwareType,DateUTC
2013-04-13 00:00:00,34.0,32.4,29.53,NNE,23,0.2,1.3,94,0.01,,,0.19,WUHU216HW,2013-04-13 04:00:00,
2013-04-13 00:01:00,34.0,32.4,29.53,North,0,0.2,1.3,94,0.01,,,0.00,WUHU216HW,2013-04-13 04:01:00,
2013-04-13 00:02:00,34.0,32.4,29.53,North,6,0.2,0.4,94,0.01,,,0.00,WUHU216HW,2013-04-13 04:02:00,
2013-04-13 00:07:00,34.0,32.4,29.53,North,0,0.4,0.4,94,0.01,,,0.00,WUHU216HW,2013-04-13 04:07:00,
2013-04-13 00:12:00,34.0,32.4,29.54,NW,315,0.3,0.4,94,0.01,,,0.00,WUHU216HW,2013-04-13 04:12:00,
2013-04-13 00:17:00,34.0,32.4,29.54,North,0,0.2,0.4,94,0.01,,,0.00,WUHU216HW,2013-04-13 04:17:00,
2013-04-13 00:22:00,34.0,32.4,29.54,North,0,0.0,0.4,94,0.00,,,0.00,WUHU216HW,2013-04-13 04:22:00,
2013-04-13 00:27:00,33.8,32.2,29.54,NE,43,0.3,0.4,94,0.00,,,0.00,WUHU216HW,2013-04-13 04:27:00,
2013-04-13 00:32:00,33.8,32.2,29.53,ENE,68,0.2,0.4,94,0.00,,,0.00,WUHU216HW,2013-04-13 04:32:00,
2013-04-13 00:37:00,33.8,32.2,29.53,ENE,68,0.0,0.2,94,0.00,,,0.00,WUHU216HW,2013-04-13 04:37:00,
2013-04-13 00:42:00,33.8,32.2,29.53,North,0,0.4,0.4,94,0.00,,,0.00,WUHU216HW,2013-04-13 04:42:00,
2013-04-13 00:48:00,33.8,32.2,29.51,NNE,23,1.1,1.1,94,0.00,,,0.00,WUHU216HW,2013-04-13 04:48:00,
2013-04-13 00:53:00,33.8,32.2,29.50,NNE,23,1.0,1.8,94,0.00,,,0.00,WUHU216HW,2013-04-13 04:53:00,
2013-04-13 00:58:00,33.8,32.2,29.52,NW,315,0.0,1.8,94,0.00,,,0.00,WUHU216HW,2013-04-13 04:58:00,
2013-04-13 01:03:00,33.8,32.2,29.53,NW,315,0.0,0.4,94,0.00,,,0.00,WUHU216HW,2013-04-13 05:03:00,
2013-04-13 01:08:00,33.8,32.2,29.53,NW,315,0.2,0.4,94,0.00,,,0.00,WUHU216HW,2013-04-13 05:08:00,
2013-04-13 01:13:00,33.8,32.2,29.53,North,0,0.2,0.2,94,0.00,,,0.00,WUHU216HW,2013-04-13 05:13:00,
2013-04-13 01:18:00,33.8,32.2,29.53,North,0,0.0,0.2,94,0.00,,,0.00,WUHU216HW,2013-04-13 05:18:00,
2013-04-13 01:23:00,33.8,32.2,29.52,North,0,0.2,0.2,94,0.00,,,0.00,WUHU216HW,2013-04-13 05:23:00,
2013-04-13 01:28:00,33.8,32.2,29.53,North,0,0.2,0.2,94,0.00,,,0.00,WUHU216HW,2013-04-13 05:28:00,
2013-04-13 01:33:00,33.8,32.2,29.53,ENE,68,0.4,0.4,94,0.00,,,0.00,WUHU216HW,2013-04-13 05:33:00,
2013-04-13 01:38:00,33.8,32.2,29.52,ENE,68,0.7,1.1,94,0.00,,,0.00,WUHU216HW,2013-04-13 05:38:00,
2013-04-13 01:43:00,33.8,32.2,29.52,ENE,68,0.0,1.1,94,0.00,,,0.00,WUHU216HW,2013-04-13 05:43:00,
2013-04-13 01:48:00,33.8,32.2,29.52,SSW,194,0.3,0.7,94,0.00,,,0.00,WUHU216HW,2013-04-13 05:48:00,
2013-04-13 01:54:00,33.7,32.0,29.53,WSW,248,0.2,0.4,94,0.00,,,0.00,WUHU216HW,2013-04-13 05:54:00,
2013-04-13 01:59:00,33.7,32.0,29.53,WNW,293,0.2,0.2,94,0.00,,,0.00,WUHU216HW,2013-04-13 05:59:00,
2013-04-13 02:04:00,33.8,32.2,29.52,NNW,338,0.4,0.4,94,0.00,,,0.00,WUHU216HW,2013-04-13 06:04:00,
2013-04-13 02:09:00,33.7,32.0,29.51,NW,315,0.0,0.4,94,0.00,,,0.00,WUHU216HW,2013-04-13 06:09:00,
2013-04-13 02:14:00,33.7,32.0,29.51,NW,315,0.2,0.7,94,0.00,,,0.00,WUHU216HW,2013-04-13 06:14:00,
2013-04-13 02:19:00,33.7,31.8,29.51,NW,315,0.4,0.7,93,0.00,,,0.00,WUHU216HW,2013-04-13 06:19:00,
2013-04-13 02:24:00,33.7,31.8,29.51,WSW,248,0.2,0.9,93,0.00,,,0.00,WUHU216HW,2013-04-13 06:24:00,
2013-04-13 02:29:00,33.7,31.8,29.51,WNW,293,0.2,0.9,93,0.00,,,0.00,WUHU216HW,2013-04-13 06:29:00,
2013-04-13 02:34:00,33.5,31.6,29.52,NNE,23,0.0,0.2,93,0.00,,,0.00,WUHU216HW,2013-04-13 06:34:00,
2013-04-13 02:39:00,33.7,31.8,29.51,North,0,0.2,0.2,93,0.00,,,0.00,WUHU216HW,2013-04-13 06:39:00,
2013-04-13 02:44:00,33.7,31.8,29.52,WNW,286,0.3,0.4,93,0.00,,,0.00,WUHU216HW,2013-04-13 06:44:00,
2013-04-13 02:49:00,33.7,31.8,29.53,NW,315,0.2,0.4,93,0.00,,,0.00,WUHU216HW,2013-04-13 06:49:00,
2013-04-13 02:54:00,33.7,31.8,29.51,North,0,0.5,1.3,93,0.00,,,0.00,WUHU216HW,2013-04-13 06:54:00,
2013-04-13 03:00:00,33.7,32.0,29.51,North,0,0.4,1.3,94,0.00,,,0.00,WUHU216HW,2013-04-13 07:00:00,
2013-04-13 03:05:00,33.7,31.8,29.53,North,0,0.4,0.4,93,0.00,,,0.00,WUHU216HW,2013-04-13 07:05:00,
2013-04-13 03:10:00,33.7,31.8,29.52,NNE,23,1.1,1.1,93,0.01,,,0.01,WUHU216HW,2013-04-13 07:10:00,
2013-04-13 03:15:00,33.7,31.8,29.51,NNE,23,0.2,1.1,93,0.01,,,0.01,WUHU216HW,2013-04-13 07:15:00,
2013-04-13 03:20:00,33.5,31.6,29.52,NNE,23,0.2,1.1,93,0.01,,,0.01,WUHU216HW,2013-04-13 07:20:00,
2013-04-13 03:25:00,33.7,31.8,29.52,WSW,248,0.0,0.2,93,0.01,,,0.01,WUHU216HW,2013-04-13 07:25:00,
2013-04-13 03:30:00,33.5,31.6,29.50,WSW,248,0.2,0.2,93,0.01,,,0.01,WUHU216HW,2013-04-13 07:30:00,
2013-04-13 03:35:00,33.5,31.6,29.49,West,270,0.4,0.4,93,0.01,,,0.01,WUHU216HW,2013-04-13 07:35:00,
2013-04-13 03:40:00,33.5,31.6,29.48,ESE,113,0.2,0.7,93,0.02,,,0.02,WUHU216HW,2013-04-13 07:40:00,
2013-04-13 03:46:00,33.5,31.6,29.46,ESE,113,0.9,0.9,93,0.02,,,0.02,WUHU216HW,2013-04-13 07:46:00,
2013-04-13 03:51:00,33.5,31.6,29.46,ESE,113,0.2,0.9,93,0.02,,,0.02,WUHU216HW,2013-04-13 07:51:00,
2013-04-13 03:56:00,33.5,31.6,29.47,ESE,113,0.0,0.9,93,0.02,,,0.02,WUHU216HW,2013-04-13 07:56:00,
2013-04-13 04:01:00,33.5,31.6,29.48,ESE,113,0.2,0.2,93,0.02,,,0.02,WUHU216HW,2013-04-13 08:01:00,
2013-04-13 04:06:00,33.3,31.4,29.48,ESE,113,0.0,0.2,93,0.02,,,0.02,WUHU216HW,2013-04-13 08:06:00,
2013-04-13 04:11:00,33.3,31.4,29.48,ESE,113,0.0,0.0,93,0.01,,,0.02,WUHU216HW,2013-04-13 08:11:00,
2013-04-13 04:17:00,33.3,31.4,29.48,ESE,113,0.0,0.0,93,0.01,,,0.02,WUHU216HW,2013-04-13 08:17:00,
2013-04-13 04:22:00,33.3,31.4,29.48,ESE,113,0.2,0.4,93,0.01,,,0.02,WUHU216HW,2013-04-13 08:22:00,
2013-04-13 04:27:00,33.3,31.4,29.48,ESE,113,0.0,0.4,93,0.01,,,0.02,WUHU216HW,2013-04-13 08:27:00,
2013-04-13 04:32:00,33.3,31.4,29.48,ESE,113,0.0,0.0,93,0.01,,,0.02,WUHU216HW,2013-04-13 08:32:00,
2013-04-13 04:37:00,33.3,31.4,29.48,ESE,113,0.0,0.4,93,0.00,,,0.02,WUHU216HW,2013-04-13 08:37:00,
2013-04-13 04:42:00,33.3,31.4,29.49,ESE,113,0.0,0.4,93,0.00,,,0.02,WUHU216HW,2013-04-13 08:42:00,
2013-04-13 04:48:00,33.3,31.4,29.49,SSW,203,0.4,0.7,93,0.00,,,0.02,WUHU216HW,2013-04-13 08:48:00,
2013-04-13 04:53:00,33.3,31.4,29.49,SSW,193,0.5,0.7,93,0.00,,,0.02,WUHU216HW,2013-04-13 08:53:00,
2013-04-13 04:58:00,33.3,31.4,29.49,SE,135,0.0,0.7,93,0.00,,,0.02,WUHU216HW,2013-04-13 08:58:00,
2013-04-13 05:03:00,33.3,31.4,29.49,SE,135,0.2,0.7,93,0.00,,,0.02,WUHU216HW,2013-04-13 09:03:00,
2013-04-13 05:08:00,33.3,31.4,29.49,ESE,113,0.0,0.4,93,0.00,,,0.02,WUHU216HW,2013-04-13 09:08:00,
2013-04-13 05:14:00,33.3,31.4,29.49,ESE,113,0.0,0.4,93,0.00,,,0.02,WUHU216HW,2013-04-13 09:14:00,
2013-04-13 05:19:00,33.3,31.4,29.48,ESE,113,0.2,0.2,93,0.00,,,0.02,WUHU216HW,2013-04-13 09:19:00,
2013-04-13 05:24:00,33.3,31.4,29.49,ESE,113,0.0,0.2,93,0.00,,,0.02,WUHU216HW,2013-04-13 09:24:00,
2013-04-13 05:29:00,33.3,31.4,29.49,ESE,113,0.0,0.0,93,0.00,,,0.02,WUHU216HW,2013-04-13 09:29:00,
2013-04-13 05:34:00,33.3,31.4,29.49,ESE,113,0.2,0.2,93,0.00,,,0.02,WUHU216HW,2013-04-13 09:34:00,
2013-04-13 05:39:00,33.3,31.4,29.49,ESE,113,0.0,0.2,93,0.00,,,0.02,WUHU216HW,2013-04-13 09:39:00,
2013-04-13 05:44:00,33.3,31.4,29.49,ESE,113,0.0,0.0,93,0.00,,,0.02,WUHU216HW,2013-04-13 09:44:00,
2013-04-13 05:49:00,33.3,31.4,29.49,ESE,113,0.0,0.2,93,0.00,,,0.02,WUHU216HW,2013-04-13 09:49:00,
2013-04-13 05:54:00,33.3,31.4,29.49,ESE,113,0.0,0.0,93,0.00,,,0.02,WUHU216HW,2013-04-13 09:54:00,
2013-04-13 06:00:00,33.3,31.4,29.50,ESE,113,0.0,0.4,93,0.00,,,0.02,WUHU216HW,2013-04-13 10:00:00,
2013-04-13 06:05:00,33.3,31.4,29.50,ESE,113,0.0,0.4,93,0.00,,,0.02,WUHU216HW,2013-04-13 10:05:00,
2013-04-13 06:10:00,33.3,31.4,29.51,ESE,113,0.0,0.0,93,0.00,,,0.02,WUHU216HW,2013-04-13 10:10:00,
2013-04-13 06:15:00,33.3,31.4,29.51,ESE,113,0.0,0.0,93,0.00,,,0.02,WUHU216HW,2013-04-13 10:15:00,
2013-04-13 06:20:00,33.5,31.6,29.51,ESE,113,0.0,0.0,93,0.00,,,0.02,WUHU216HW,2013-04-13 10:20:00,
2013-04-13 06:25:00,33.5,31.6,29.50,ESE,113,0.2,0.2,93,0.00,,,0.02,WUHU216HW,2013-04-13 10:25:00,
2013-04-13 06:30:00,33.3,31.4,29.51,ESE,113,0.0,0.2,93,0.00,,,0.02,WUHU216HW,2013-04-13 10:30:00,
2013-04-13 06:35:00,33.5,31.6,29.51,ESE,113,0.0,0.0,93,0.00,,,0.02,WUHU216HW,2013-04-13 10:35:00,
2013-04-13 06:41:00,33.5,31.6,29.51,ESE,113,0.0,0.0,93,0.00,,,0.02,WUHU216HW,2013-04-13 10:41:00,
2013-04-13 06:46:00,33.5,31.6,29.51,ESE,113,0.0,0.0,93,0.00,,,0.02,WUHU216HW,2013-04-13 10:46:00,
2013-04-13 06:51:00,33.5,31.6,29.52,ESE,113,0.0,0.0,93,0.00,,,0.02,WUHU216HW,2013-04-13 10:51:00,
2013-04-13 06:56:00,33.7,31.8,29.51,ESE,113,0.0,0.0,93,0.00,,,0.02,WUHU216HW,2013-04-13 10:56:00,
2013-04-13 07:02:00,33.7,32.0,29.51,ESE,113,0.0,0.0,94,0.00,,,0.02,WUHU216HW,2013-04-13 11:02:00,
2013-04-13 07:07:00,33.7,32.0,29.51,ESE,113,0.0,0.0,94,0.00,,,0.02,WUHU216HW,2013-04-13 11:07:00,
2013-04-13 07:12:00,33.7,32.0,29.51,ESE,113,0.0,0.0,94,0.00,,,0.02,WUHU216HW,2013-04-13 11:12:00,
2013-04-13 07:17:00,33.8,32.2,29.51,ESE,113,0.2,0.2,94,0.00,,,0.02,WUHU216HW,2013-04-13 11:17:00,
2013-04-13 07:22:00,34.0,32.4,29.51,ESE,113,0.0,0.2,94,0.00,,,0.02,WUHU216HW,2013-04-13 11:22:00,
2013-04-13 07:27:00,34.2,32.6,29.51,ESE,113,0.0,0.0,94,0.00,,,0.02,WUHU216HW,2013-04-13 11:27:00,
2013-04-13 07:32:00,34.4,32.8,29.51,ESE,113,0.0,0.0,94,0.00,,,0.02,WUHU216HW,2013-04-13 11:32:00,
2013-04-13 07:37:00,34.4,32.8,29.52,ESE,113,0.2,0.4,94,0.01,,,0.03,WUHU216HW,2013-04-13 11:37:00,
2013-04-13 07:43:00,34.6,32.9,29.52,ESE,113,0.0,0.4,94,0.01,,,0.03,WUHU216HW,2013-04-13 11:43:00,
2013-04-13 07:48:00,34.6,32.9,29.52,ESE,113,0.0,0.4,94,0.01,,,0.03,WUHU216HW,2013-04-13 11:48:00,
2013-04-13 07:53:00,34.7,33.1,29.52,WSW,248,0.0,0.4,94,0.01,,,0.03,WUHU216HW,2013-04-13 11:53:00,
2013-04-13 07:58:00,34.9,33.3,29.52,SSW,203,0.0,0.4,94,0.01,,,0.03,WUHU216HW,2013-04-13 11:58:00,
2013-04-13 08:03:00,35.1,33.5,29.51,SSW,203,0.3,0.4,94,0.01,,,0.03,WUHU216HW,2013-04-13 12:03:00,
2013-04-13 08:08:00,35.3,33.7,29.52,WSW,248,0.0,0.9,94,0.01,,,0.03,WUHU216HW,2013-04-13 12:08:00,
2013-04-13 08:13:00,35.6,34.0,29.52,North,0,0.0,0.9,94,0.02,,,0.04,WUHU216HW,2013-04-13 12:13:00,
2013-04-13 08:18:00,35.8,34.2,29.52,NNW,338,0.4,0.7,94,0.02,,,0.04,WUHU216HW,2013-04-13 12:18:00,
2013-04-13 08:23:00,36.2,34.6,29.52,North,0,0.7,0.7,94,0.02,,,0.04,WUHU216HW,2013-04-13 12:23:00,
2013-04-13 08:29:00,36.4,34.7,29.51,NNE,17,0.5,1.6,94,0.02,,,0.04,WUHU216HW,2013-04-13 12:29:00,
2013-04-13 08:34:00,36.5,34.9,29.51,NNE,23,0.0,1.6,94,0.02,,,0.04,WUHU216HW,2013-04-13 12:34:00,
2013-04-13 08:39:00,36.7,35.1,29.52,SW,226,0.4,0.9,94,0.02,,,0.05,WUHU216HW,2013-04-13 12:39:00,
2013-04-13 08:44:00,36.9,35.3,29.51,NW,315,0.0,0.4,94,0.02,,,0.05,WUHU216HW,2013-04-13 12:44:00,
2013-04-13 08:49:00,37.3,35.6,29.51,WSW,248,0.4,0.4,94,0.02,,,0.05,WUHU216HW,2013-04-13 12:49:00,
2013-04-13 08:54:00,37.4,35.6,29.51,North,0,1.1,1.1,93,0.03,,,0.06,WUHU216HW,2013-04-13 12:54:00,
2013-04-13 08:59:00,37.6,35.7,29.51,SW,225,0.0,1.1,93,0.03,,,0.06,WUHU216HW,2013-04-13 12:59:00,
2013-04-13 09:04:00,38.0,35.8,29.51,NNW,338,0.4,1.1,92,0.03,,,0.06,WUHU216HW,2013-04-13 13:04:00,
2013-04-13 09:09:00,38.3,35.9,29.51,WSW,238,1.1,1.8,91,0.03,,,0.06,WUHU216HW,2013-04-13 13:09:00,
2013-04-13 09:14:00,38.5,35.8,29.51,SW,225,0.7,1.8,90,0.03,,,0.07,WUHU216HW,2013-04-13 13:14:00,
2013-04-13 09:20:00,39.2,36.5,29.51,NNE,12,0.3,0.9,90,0.03,,,0.07,WUHU216HW,2013-04-13 13:20:00,
2013-04-13 09:25:00,39.4,36.5,29.51,NNW,338,0.0,0.9,89,0.03,,,0.07,WUHU216HW,2013-04-13 13:25:00,
2013-04-13 09:30:00,39.6,36.4,29.51,NNW,328,1.0,1.6,88,0.04,,,0.08,WUHU216HW,2013-04-13 13:30:00,
2013-04-13 09:35:00,39.8,36.2,29.51,NW,315,0.0,1.6,87,0.03,,,0.08,WUHU216HW,2013-04-13 13:35:00,
2013-04-13 09:40:00,39.8,36.2,29.51,NW,315,0.9,0.9,87,0.04,,,0.09,WUHU216HW,2013-04-13 13:40:00,
2013-04-13 09:46:00,40.0,36.4,29.51,SSW,203,0.4,0.9,87,0.04,,,0.09,WUHU216HW,2013-04-13 13:46:00,
2013-04-13 09:52:00,39.8,36.2,29.52,NE,45,0.9,1.1,87,0.04,,,0.09,WUHU216HW,2013-04-13 13:52:00,
2013-04-13 09:57:00,39.8,36.2,29.51,NNE,23,0.0,1.1,87,0.04,,,0.10,WUHU216HW,2013-04-13 13:57:00,
2013-04-13 10:02:00,39.6,35.2,29.51,North,359,1.0,2.2,84,0.04,,,0.10,WUHU216HW,2013-04-13 14:02:00,
2013-04-13 10:07:00,39.8,35.9,29.51,SSW,203,0.2,2.2,86,0.04,,,0.10,WUHU216HW,2013-04-13 14:07:00,
2013-04-13 10:12:00,40.0,35.8,29.51,North,0,0.7,0.7,85,0.05,,,0.11,WUHU216HW,2013-04-13 14:12:00,
2013-04-13 10:17:00,40.3,35.8,29.51,WNW,282,0.3,0.7,84,0.04,,,0.11,WUHU216HW,2013-04-13 14:17:00,
2013-04-13 10:23:00,40.5,36.3,29.51,SW,225,0.7,0.7,85,0.05,,,0.12,WUHU216HW,2013-04-13 14:23:00,
2013-04-13 10:28:00,40.7,35.6,29.51,North,0,1.1,1.1,82,0.04,,,0.12,WUHU216HW,2013-04-13 14:28:00,
2013-04-13 10:33:00,40.9,36.0,29.51,ENE,68,0.2,1.1,83,0.04,,,0.12,WUHU216HW,2013-04-13 14:33:00,
2013-04-13 10:38:00,41.4,36.5,29.51,WSW,248,0.2,0.7,83,0.04,,,0.12,WUHU216HW,2013-04-13 14:38:00,
2013-04-13 10:43:00,41.6,36.5,29.51,NE,35,0.6,0.7,82,0.04,,,0.13,WUHU216HW,2013-04-13 14:43:00,
2013-04-13 10:48:00,42.1,37.6,29.52,SW,225,1.6,1.6,84,0.04,,,0.13,WUHU216HW,2013-04-13 14:48:00,
2013-04-13 10:54:00,42.8,38.0,29.51,SW,225,1.8,1.8,83,0.05,,,0.14,WUHU216HW,2013-04-13 14:54:00,
2013-04-13 10:59:00,43.0,38.5,29.52,North,0,0.0,1.8,84,0.04,,,0.14,WUHU216HW,2013-04-13 14:59:00,
2013-04-13 11:04:00,43.2,37.1,29.52,North,0,0.0,0.0,79,0.05,,,0.15,WUHU216HW,2013-04-13 15:04:00,
2013-04-13 11:09:00,43.2,37.4,29.52,North,0,0.0,0.0,80,0.05,,,0.15,WUHU216HW,2013-04-13 15:09:00,
2013-04-13 11:14:00,43.4,37.9,29.51,North,0,0.0,0.0,81,0.04,,,0.15,WUHU216HW,2013-04-13 15:14:00,
2013-04-13 11:19:00,44.3,38.5,29.51,North,0,0.0,0.0,80,0.05,,,0.16,WUHU216HW,2013-04-13 15:19:00,
2013-04-13 11:24:00,44.6,38.9,29.51,North,0,0.0,0.0,80,0.05,,,0.17,WUHU216HW,2013-04-13 15:24:00,
2013-04-13 11:29:00,45.0,39.5,29.51,North,0,0.0,0.0,81,0.05,,,0.17,WUHU216HW,2013-04-13 15:29:00,
2013-04-13 11:34:00,45.4,39.9,29.52,North,0,0.0,0.0,81,0.06,,,0.18,WUHU216HW,2013-04-13 15:34:00,
2013-04-13 11:39:00,45.7,40.0,29.52,North,0,0.0,0.0,80,0.05,,,0.18,WUHU216HW,2013-04-13 15:39:00,
2013-04-13 11:44:00,45.7,40.0,29.51,North,0,0.0,0.0,80,0.05,,,0.18,WUHU216HW,2013-04-13 15:44:00,
2013-04-13 11:49:00,46.1,40.3,29.52,North,0,0.0,0.0,80,0.05,,,0.19,WUHU216HW,2013-04-13 15:49:00,
2013-04-13 11:55:00,46.4,41.0,29.52,North,0,0.0,0.0,81,0.05,,,0.19,WUHU216HW,2013-04-13 15:55:00,
2013-04-13 12:00:00,46.6,41.1,29.52,North,0,0.0,0.0,81,0.06,,,0.20,WUHU216HW,2013-04-13 16:00:00,
2013-04-13 12:05:00,46.4,39.0,29.52,North,0,0.0,0.0,75,0.05,,,0.20,WUHU216HW,2013-04-13 16:05:00,
2013-04-13 12:10:00,46.6,40.1,29.51,WSW,248,4.7,4.7,78,0.05,,,0.20,WUHU216HW,2013-04-13 16:10:00,
2013-04-13 12:15:00,47.0,40.5,29.51,North,0,0.0,4.7,78,0.05,,,0.21,WUHU216HW,2013-04-13 16:15:00,
2013-04-13 12:20:00,47.5,40.3,29.51,NE,45,1.1,4.7,76,0.04,,,0.21,WUHU216HW,2013-04-13 16:20:00,
2013-04-13 12:25:00,47.5,40.3,29.51,South,180,3.8,3.8,76,0.04,,,0.21,WUHU216HW,2013-04-13 16:25:00,
2013-04-13 12:31:00,48.2,41.6,29.51,WSW,248,2.7,3.8,78,0.05,,,0.22,WUHU216HW,2013-04-13 16:31:00,
2013-04-13 12:36:00,48.4,40.8,29.51,WSW,248,2.7,3.8,75,0.04,,,0.22,WUHU216HW,2013-04-13 16:36:00,
2013-04-13 12:41:00,48.6,41.0,29.51,North,0,0.0,2.7,75,0.04,,,0.22,WUHU216HW,2013-04-13 16:41:00,
2013-04-13 12:46:00,49.3,41.7,29.51,WNW,293,0.9,2.7,75,0.03,,,0.22,WUHU216HW,2013-04-13 16:46:00,
2013-04-13 12:51:00,49.5,41.9,29.51,WSW,248,2.0,2.2,75,0.04,,,0.23,WUHU216HW,2013-04-13 16:51:00,
2013-04-13 12:56:00,49.9,41.2,29.51,North,0,0.0,2.2,72,0.03,,,0.23,WUHU216HW,2013-04-13 16:56:00,
2013-04-13 13:01:00,49.7,41.1,29.50,North,0,0.0,2.0,72,0.03,,,0.23,WUHU216HW,2013-04-13 17:01:00,
2013-04-13 13:06:00,50.0,41.4,29.50,North,0,0.0,0.0,72,0.03,,,0.23,WUHU216HW,2013-04-13 17:06:00,
2013-04-13 13:11:00,50.0,41.4,29.50,North,0,0.0,0.0,72,0.03,,,0.23,WUHU216HW,2013-04-13 17:11:00,
2013-04-13 13:16:00,50.2,41.6,29.50,North,0,0.0,0.0,72,0.02,,,0.23,WUHU216HW,2013-04-13 17:16:00,
2013-04-13 13:22:00,49.7,40.7,29.49,North,0,0.0,0.0,71,0.02,,,0.23,WUHU216HW,2013-04-13 17:22:00,
2013-04-13 13:27:00,49.9,40.5,29.49,North,0,0.0,0.0,70,0.02,,,0.23,WUHU216HW,2013-04-13 17:27:00,
2013-04-13 13:32:00,50.2,41.6,29.49,North,0,0.0,0.0,72,0.01,,,0.23,WUHU216HW,2013-04-13 17:32:00,
2013-04-13 13:37:00,50.4,40.2,29.49,North,0,0.0,0.0,68,0.01,,,0.23,WUHU216HW,2013-04-13 17:37:00,
2013-04-13 13:42:00,50.8,41.8,29.49,North,0,0.0,0.0,71,0.01,,,0.23,WUHU216HW,2013-04-13 17:42:00,
2013-04-13 13:47:00,51.5,42.9,29.49,North,0,0.0,0.0,72,0.00,,,0.23,WUHU216HW,2013-04-13 17:47:00,
2013-04-13 13:52:00,51.7,41.9,29.49,North,0,0.0,0.0,69,0.00,,,0.23,WUHU216HW,2013-04-13 17:52:00,
2013-04-13 13:58:00,51.7,42.3,29.49,North,0,0.0,0.0,70,0.00,,,0.23,WUHU216HW,2013-04-13 17:58:00,
2013-04-13 14:03:00,51.7,41.0,29.49,North,0,0.0,0.0,67,0.00,,,0.23,WUHU216HW,2013-04-13 18:03:00,
2013-04-13 14:08:00,51.5,41.7,29.49,North,0,0.0,0.0,69,0.00,,,0.23,WUHU216HW,2013-04-13 18:08:00,
2013-04-13 14:13:00,51.5,41.3,29.48,North,0,0.0,0.0,68,0.00,,,0.23,WUHU216HW,2013-04-13 18:13:00,
2013-04-13 14:18:00,51.8,41.7,29.48,North,0,0.0,0.0,68,0.01,,,0.24,WUHU216HW,2013-04-13 18:18:00,
2013-04-13 14:23:00,51.7,41.5,29.48,North,0,0.0,0.0,68,0.01,,,0.24,WUHU216HW,2013-04-13 18:23:00,
2013-04-13 14:27:00,51.5,40.9,29.48,North,0,0.0,0.0,67,0.01,,,0.24,WUHU216HW,2013-04-13 18:27:00,
2013-04-13 14:28:00,51.5,40.9,29.48,North,0,0.0,0.0,67,0.01,,,0.24,WUHU216HW,2013-04-13 18:28:00,
2013-04-13 14:33:00,51.5,40.9,29.49,North,0,0.0,0.0,67,0.01,,,0.24,WUHU216HW,2013-04-13 18:33:00,
2013-04-13 14:38:00,51.3,40.3,29.49,North,0,0.0,0.0,66,0.01,,,0.24,WUHU216HW,2013-04-13 18:38:00,
2013-04-13 14:43:00,50.9,40.0,29.49,North,0,0.0,0.0,66,0.01,,,0.24,WUHU216HW,2013-04-13 18:43:00,
2013-04-13 14:48:00,50.9,40.8,29.48,North,0,0.0,0.0,68,0.01,,,0.24,WUHU216HW,2013-04-13 18:48:00,
2013-04-13 14:54:00,50.9,40.8,29.48,North,0,0.0,0.0,68,0.01,,,0.24,WUHU216HW,2013-04-13 18:54:00,
2013-04-13 14:59:00,51.1,41.0,29.48,North,0,0.0,0.0,68,0.01,,,0.24,WUHU216HW,2013-04-13 18:59:00,
2013-04-13 15:04:00,51.5,41.3,29.48,North,0,0.0,0.0,68,0.01,,,0.24,WUHU216HW,2013-04-13 19:04:00,
2013-04-13 15:09:00,51.7,41.5,29.48,North,0,0.0,0.0,68,0.01,,,0.24,WUHU216HW,2013-04-13 19:09:00,
2013-04-13 15:14:00,51.5,40.9,29.48,North,0,0.0,0.0,67,0.01,,,0.24,WUHU216HW,2013-04-13 19:14:00,
2013-04-13 15:19:00,51.3,40.3,29.48,North,0,0.0,0.0,66,0.00,,,0.24,WUHU216HW,2013-04-13 19:19:00,
2013-04-13 15:24:00,51.1,40.2,29.47,North,0,0.0,0.0,66,0.00,,,0.24,WUHU216HW,2013-04-13 19:24:00,
2013-04-13 15:29:00,51.1,40.5,29.47,North,0,0.0,0.0,67,0.00,,,0.24,WUHU216HW,2013-04-13 19:29:00,
2013-04-13 15:34:00,50.9,40.3,29.47,North,0,0.0,0.0,67,0.00,,,0.24,WUHU216HW,2013-04-13 19:34:00,
2013-04-13 15:39:00,50.9,40.0,29.48,North,0,0.0,0.0,66,0.00,,,0.24,WUHU216HW,2013-04-13 19:39:00,
2013-04-13 15:44:00,50.8,40.2,29.47,North,0,0.0,0.0,67,0.00,,,0.24,WUHU216HW,2013-04-13 19:44:00,
2013-04-13 15:49:00,50.8,40.2,29.48,North,0,0.0,0.0,67,0.00,,,0.24,WUHU216HW,2013-04-13 19:49:00,
2013-04-13 15:54:00,50.8,40.2,29.48,North,0,0.0,0.0,67,0.00,,,0.24,WUHU216HW,2013-04-13 19:54:00,
2013-04-13 15:59:00,50.8,40.6,29.47,North,0,0.0,0.0,68,0.00,,,0.24,WUHU216HW,2013-04-13 19:59:00,
2013-04-13 16:04:00,51.1,41.0,29.47,North,0,0.0,0.0,68,0.00,,,0.24,WUHU216HW,2013-04-13 20:04:00,
2013-04-13 16:09:00,51.5,41.3,29.47,North,0,0.0,0.0,68,0.00,,,0.24,WUHU216HW,2013-04-13 20:09:00,
2013-04-13 16:14:00,51.7,41.5,29.47,North,0,0.0,0.0,68,0.00,,,0.24,WUHU216HW,2013-04-13 20:14:00,
2013-04-13 16:20:00,52.0,41.4,29.47,North,0,0.0,0.0,67,0.00,,,0.24,WUHU216HW,2013-04-13 20:20:00,
2013-04-13 16:25:00,52.2,41.1,29.47,North,0,0.0,0.0,66,0.00,,,0.24,WUHU216HW,2013-04-13 20:25:00,
2013-04-13 16:30:00,52.0,40.6,29.47,North,0,0.0,0.0,65,0.00,,,0.24,WUHU216HW,2013-04-13 20:30:00,
2013-04-13 16:35:00,52.0,40.6,29.47,North,0,0.0,0.0,65,0.00,,,0.24,WUHU216HW,2013-04-13 20:35:00,
2013-04-13 16:40:00,51.8,39.2,29.48,North,0,0.0,0.0,62,0.00,,,0.24,WUHU216HW,2013-04-13 20:40:00,
2013-04-13 16:45:00,51.7,39.9,29.48,North,0,0.0,0.0,64,0.00,,,0.24,WUHU216HW,2013-04-13 20:45:00,
2013-04-13 16:50:00,51.7,39.9,29.48,North,0,0.0,0.0,64,0.00,,,0.24,WUHU216HW,2013-04-13 20:50:00,
2013-04-13 16:55:00,51.8,40.4,29.48,North,0,0.0,0.0,65,0.00,,,0.24,WUHU216HW,2013-04-13 20:55:00,
2013-04-13 17:00:00,51.8,40.4,29.48,North,0,0.0,0.0,65,0.00,,,0.24,WUHU216HW,2013-04-13 21:00:00,
2013-04-13 17:05:00,51.5,40.1,29.49,North,0,0.0,0.0,65,0.00,,,0.24,WUHU216HW,2013-04-13 21:05:00,
2013-04-13 17:10:00,51.3,39.9,29.49,North,0,0.0,0.0,65,0.00,,,0.24,WUHU216HW,2013-04-13 21:10:00,
2013-04-13 17:16:00,51.1,39.7,29.49,North,0,0.0,0.0,65,0.00,,,0.24,WUHU216HW,2013-04-13 21:16:00,
2013-04-13 17:21:00,50.8,39.4,29.50,North,0,0.0,0.0,65,0.00,,,0.24,WUHU216HW,2013-04-13 21:21:00,
2013-04-13 17:26:00,50.8,39.8,29.50,North,0,0.0,0.0,66,0.00,,,0.24,WUHU216HW,2013-04-13 21:26:00,
2013-04-13 17:31:00,50.8,40.2,29.50,North,0,0.0,0.0,67,0.00,,,0.24,WUHU216HW,2013-04-13 21:31:00,
2013-04-13 17:36:00,50.6,40.1,29.51,North,0,0.0,0.0,67,0.00,,,0.24,WUHU216HW,2013-04-13 21:36:00,
2013-04-13 17:41:00,50.4,39.9,29.51,North,0,0.0,0.0,67,0.00,,,0.24,WUHU216HW,2013-04-13 21:41:00,
2013-04-13 17:46:00,50.4,40.2,29.51,North,0,0.0,0.0,68,0.00,,,0.24,WUHU216HW,2013-04-13 21:46:00,
2013-04-13 17:52:00,50.0,39.9,29.51,North,0,0.0,0.0,68,0.00,,,0.24,WUHU216HW,2013-04-13 21:52:00,
2013-04-13 17:57:00,50.0,40.3,29.51,SSE,158,0.2,0.2,69,0.00,,,0.24,WUHU216HW,2013-04-13 21:57:00,
2013-04-13 18:02:00,49.9,40.2,29.52,WSW,248,0.0,0.2,69,0.00,,,0.24,WUHU216HW,2013-04-13 22:02:00,
2013-04-13 18:07:00,49.9,40.2,29.52,WSW,248,0.4,0.4,69,0.00,,,0.24,WUHU216HW,2013-04-13 22:07:00,
2013-04-13 18:12:00,49.7,40.0,29.52,WSW,248,0.0,0.4,69,0.00,,,0.24,WUHU216HW,2013-04-13 22:12:00,
2013-04-13 18:17:00,49.5,40.1,29.53,West,270,0.0,0.4,70,0.00,,,0.24,WUHU216HW,2013-04-13 22:17:00,
2013-04-13 18:22:00,49.3,40.0,29.52,West,270,0.0,0.0,70,0.00,,,0.24,WUHU216HW,2013-04-13 22:22:00,
2013-04-13 18:27:00,49.1,40.2,29.52,NW,315,0.0,0.2,71,0.00,,,0.24,WUHU216HW,2013-04-13 22:27:00,
2013-04-13 18:32:00,49.1,40.2,29.52,NW,315,0.0,0.2,71,0.00,,,0.24,WUHU216HW,2013-04-13 22:32:00,
2013-04-13 18:37:00,48.8,40.2,29.52,NW,315,0.0,0.0,72,0.00,,,0.24,WUHU216HW,2013-04-13 22:37:00,
2013-04-13 18:43:00,48.6,40.0,29.52,NW,315,0.0,0.0,72,0.00,,,0.24,WUHU216HW,2013-04-13 22:43:00,
2013-04-13 18:48:00,48.4,40.1,29.52,NW,315,0.0,0.0,73,0.00,,,0.24,WUHU216HW,2013-04-13 22:48:00,
2013-04-13 18:53:00,48.4,40.1,29.52,NW,315,0.0,0.0,73,0.00,,,0.24,WUHU216HW,2013-04-13 22:53:00,
2013-04-13 18:58:00,48.2,40.2,29.52,NW,315,0.0,0.0,74,0.00,,,0.24,WUHU216HW,2013-04-13 22:58:00,
2013-04-13 19:03:00,47.9,40.0,29.52,West,270,0.0,0.2,74,0.00,,,0.24,WUHU216HW,2013-04-13 23:03:00,
2013-04-13 19:08:00,47.9,40.2,29.52,SE,135,0.2,0.2,75,0.00,,,0.24,WUHU216HW,2013-04-13 23:08:00,
2013-04-13 19:13:00,47.7,40.2,29.53,SW,225,0.4,0.4,75,0.00,,,0.24,WUHU216HW,2013-04-13 23:13:00,
2013-04-13 19:18:00,47.7,40.2,29.53,SSW,203,0.9,0.9,75,0.00,,,0.24,WUHU216HW,2013-04-13 23:18:00,
2013-04-13 19:23:00,47.7,39.4,29.52,WSW,248,0.9,1.3,73,0.00,,,0.24,WUHU216HW,2013-04-13 23:23:00,
2013-04-13 19:28:00,47.7,39.4,29.53,WSW,248,0.0,1.3,73,0.00,,,0.24,WUHU216HW,2013-04-13 23:28:00,
2013-04-13 19:34:00,47.5,39.6,29.53,WNW,293,0.0,0.7,74,0.00,,,0.24,WUHU216HW,2013-04-13 23:34:00,
2013-04-13 19:39:00,47.5,39.6,29.53,WNW,293,0.0,0.0,74,0.00,,,0.24,WUHU216HW,2013-04-13 23:39:00,
2013-04-13 19:44:00,47.2,39.2,29.53,WNW,293,0.0,0.0,74,0.00,,,0.24,WUHU216HW,2013-04-13 23:44:00,
2013-04-13 19:49:00,47.0,39.2,29.54,WNW,293,0.0,0.0,74,0.00,,,0.24,WUHU216HW,2013-04-13 23:49:00,
2013-04-13 19:54:00,46.6,39.2,29.54,WNW,293,0.0,0.0,75,0.00,,,0.24,WUHU216HW,2013-04-13 23:54:00,
2013-04-13 19:59:00,46.4,39.0,29.55,WNW,293,0.0,0.0,75,0.00,,,0.24,WUHU216HW,2013-04-13 23:59:00,
2013-04-13 20:04:00,46.4,39.3,29.55,WNW,293,0.2,0.2,76,0.00,,,0.24,WUHU216HW,2013-04-14 00:04:00,
2013-04-13 20:09:00,46.3,39.2,29.55,NNW,338,0.0,0.4,76,0.00,,,0.24,WUHU216HW,2013-04-14 00:09:00,
2013-04-13 20:14:00,45.9,39.2,29.55,North,0,0.0,0.4,77,0.00,,,0.24,WUHU216HW,2013-04-14 00:14:00,
2013-04-13 20:19:00,45.7,39.0,29.56,NNW,338,0.0,0.0,77,0.00,,,0.24,WUHU216HW,2013-04-14 00:19:00,
2013-04-13 20:24:00,45.5,39.1,29.56,NNW,338,0.2,0.2,78,0.00,,,0.24,WUHU216HW,2013-04-14 00:24:00,
2013-04-13 20:29:00,45.5,38.8,29.56,North,0,0.0,0.2,77,0.00,,,0.24,WUHU216HW,2013-04-14 00:29:00,
2013-04-13 20:34:00,45.5,38.8,29.56,NNW,338,0.0,0.2,77,0.00,,,0.24,WUHU216HW,2013-04-14 00:34:00,
2013-04-13 20:39:00,45.5,38.8,29.56,North,0,0.0,0.0,77,0.00,,,0.24,WUHU216HW,2013-04-14 00:39:00,
2013-04-13 20:44:00,45.5,38.8,29.56,North,0,0.0,0.0,77,0.00,,,0.24,WUHU216HW,2013-04-14 00:44:00,
2013-04-13 20:49:00,45.5,39.1,29.56,North,0,0.0,0.0,78,0.00,,,0.24,WUHU216HW,2013-04-14 00:49:00,
2013-04-13 20:54:00,45.5,39.1,29.56,North,0,0.0,0.0,78,0.00,,,0.24,WUHU216HW,2013-04-14 00:54:00,
2013-04-13 20:59:00,45.4,38.6,29.56,North,0,0.0,0.0,77,0.00,,,0.24,WUHU216HW,2013-04-14 00:59:00,
2013-04-13 21:04:00,45.2,38.4,29.56,North,0,0.0,0.0,77,0.00,,,0.24,WUHU216HW,2013-04-14 01:04:00,
2013-04-13 21:10:00,45.0,38.5,29.56,North,0,0.0,0.0,78,0.00,,,0.24,WUHU216HW,2013-04-14 01:10:00,
2013-04-13 21:15:00,44.8,38.3,29.57,North,0,0.0,0.0,78,0.00,,,0.24,WUHU216HW,2013-04-14 01:15:00,
2013-04-13 21:20:00,44.6,38.2,29.57,North,0,0.0,0.0,78,0.00,,,0.24,WUHU216HW,2013-04-14 01:20:00,
2013-04-13 21:25:00,44.6,38.5,29.57,North,0,0.0,0.0,79,0.00,,,0.24,WUHU216HW,2013-04-14 01:25:00,
2013-04-13 21:30:00,44.5,38.3,29.57,North,0,0.0,0.0,79,0.00,,,0.24,WUHU216HW,2013-04-14 01:30:00,
2013-04-13 21:35:00,44.5,38.7,29.56,North,0,0.0,0.0,80,0.00,,,0.24,WUHU216HW,2013-04-14 01:35:00,
2013-04-13 21:40:00,44.3,38.5,29.57,North,0,0.0,0.0,80,0.00,,,0.24,WUHU216HW,2013-04-14 01:40:00,
2013-04-13 21:45:00,44.3,38.5,29.56,North,0,0.0,0.0,80,0.00,,,0.24,WUHU216HW,2013-04-14 01:45:00,
2013-04-13 21:50:00,44.3,38.5,29.57,North,0,0.0,0.0,80,0.00,,,0.24,WUHU216HW,2013-04-14 01:50:00,
2013-04-13 21:55:00,44.1,38.6,29.57,North,0,0.0,0.0,81,0.00,,,0.24,WUHU216HW,2013-04-14 01:55:00,
2013-04-13 22:00:00,44.1,38.6,29.58,North,0,0.0,0.0,81,0.00,,,0.24,WUHU216HW,2013-04-14 02:00:00,
2013-04-13 22:05:00,44.1,38.6,29.58,North,0,0.0,0.0,81,0.00,,,0.24,WUHU216HW,2013-04-14 02:05:00,
2013-04-13 22:10:00,44.1,38.6,29.58,North,0,0.0,0.0,81,0.00,,,0.24,WUHU216HW,2013-04-14 02:10:00,
2013-04-13 22:16:00,43.9,38.4,29.58,North,0,0.0,0.0,81,0.00,,,0.24,WUHU216HW,2013-04-14 02:16:00,
2013-04-13 22:21:00,43.7,38.3,29.58,North,0,0.0,0.0,81,0.00,,,0.24,WUHU216HW,2013-04-14 02:21:00,
2013-04-13 22:26:00,43.6,38.1,29.58,North,0,0.0,0.0,81,0.00,,,0.24,WUHU216HW,2013-04-14 02:26:00,
2013-04-13 22:31:00,43.6,38.1,29.58,North,0,0.0,0.0,81,0.00,,,0.24,WUHU216HW,2013-04-14 02:31:00,
2013-04-13 22:36:00,43.4,37.9,29.58,North,0,0.0,0.0,81,0.00,,,0.24,WUHU216HW,2013-04-14 02:36:00,
2013-04-13 22:41:00,43.2,37.7,29.58,North,0,0.0,0.0,81,0.00,,,0.24,WUHU216HW,2013-04-14 02:41:00,
2013-04-13 22:46:00,43.2,37.7,29.58,North,0,0.0,0.0,81,0.00,,,0.24,WUHU216HW,2013-04-14 02:46:00,
2013-04-13 22:51:00,43.2,38.1,29.58,North,0,0.0,0.0,82,0.00,,,0.24,WUHU216HW,2013-04-14 02:51:00,
2013-04-13 22:56:00,43.2,38.1,29.58,North,0,0.0,0.0,82,0.00,,,0.24,WUHU216HW,2013-04-14 02:56:00,
2013-04-13 23:01:00,43.2,38.1,29.59,North,0,0.0,0.0,82,0.00,,,0.24,WUHU216HW,2013-04-14 03:01:00,
2013-04-13 23:06:00,43.2,38.1,29.59,North,0,0.0,0.0,82,0.00,,,0.24,WUHU216HW,2013-04-14 03:06:00,
2013-04-13 23:11:00,43.2,38.3,29.60,North,0,0.0,0.0,83,0.00,,,0.24,WUHU216HW,2013-04-14 03:11:00,
2013-04-13 23:16:00,43.4,38.5,29.60,North,0,0.0,0.0,83,0.00,,,0.24,WUHU216HW,2013-04-14 03:16:00,
2013-04-13 23:21:00,43.6,38.7,29.60,North,0,0.0,0.0,83,0.00,,,0.24,WUHU216HW,2013-04-14 03:21:00,
2013-04-13 23:26:00,43.6,39.1,29.60,North,0,0.0,0.0,84,0.00,,,0.24,WUHU216HW,2013-04-14 03:26:00,
2013-04-13 23:31:00,43.6,39.1,29.61,North,0,0.0,0.0,84,0.00,,,0.24,WUHU216HW,2013-04-14 03:31:00,
2013-04-13 23:36:00,43.2,38.7,29.61,North,0,0.0,0.0,84,0.00,,,0.24,WUHU216HW,2013-04-14 03:36:00,
2013-04-13 23:42:00,43.2,38.7,29.61,North,0,0.0,0.0,84,0.00,,,0.24,WUHU216HW,2013-04-14 03:42:00,
2013-04-13 23:47:00,43.0,38.8,29.61,North,0,0.0,0.0,85,0.01,,,0.25,WUHU216HW,2013-04-14 03:47:00,
2013-04-13 23:52:00,42.8,38.6,29.61,North,0,0.0,0.0,85,0.01,,,0.25,WUHU216HW,2013-04-14 03:52:00,
2013-04-13 23:57:00,42.7,38.4,29.60,North,0,0.0,0.0,85,0.01,,,0.25,WUHU216HW,2013-04-14 03:57:00,